Погода Макушино

Погода Макушино : погода сейчас, прогноз погоды и архив. Всё, что Вы хотите узнать о погоде Макушино!

Поиск расширенной информации на нашем сайте:

Другие новости

Новости СМИ2

Главная страница сайта

Новости сайта

03.07.2017

Напоминаем, что на нашем специализированном сайте Метеоцентр.Азия вы можете получить высокодетализированные автоматические прогнозы погоды по пунктам России, СНГ и мира в авиационном формате (включающие направление и скорость ветра, видимость, явления погоды, количество и форму облачности, нижнюю и верхнюю границу облачности).


Погода Макушино - сегодня

Время (UTC), дата Ветер
(°,м/с) 
Видим.   Явления Облачность Т
(°С)
Тd
(°С)
f(%) Тe
(°С)
Pmin
(гПа)
dP
(гПа)
Po
(мм)
O2
(г/м3)
Тmin Tmax R s Состояние
почвы
12 25.07.17 210 (ЮЗ) 2000 м  ливневой дождь  10/10 600 м кучево-дожд. 
[Cb cap]
+19.9 +17.1 84 +34  1004.3  0.1  741  275           
18 25.07.17 210 (ЮЗ) 20000 м  {ливн. осадки}  10/10 600 м кучево-дожд. 
[Cb cap]
+18.3 +16.1 87 +31  1004.7  0.5  741  276           
21 25.07.17 240 (ЮЗ) 4000 м  дымка  ясно 
+15.6 +14.4 93 +25  1004.4  -0.4  741  279           
00 26.07.17 240 (ЮЗ) 2000 м  дымка{туман}  6/6 1000 м 
[Sc]
+13.1 +12.2 94 +18  1005  0.4  741  283           
06 26.07.17 310 (СЗ) 20000 м    1/1 1000 м 
[Cu med, cong]
+22.9 +12.5 52 +28  1004.7  -0.2  742  273           
09 26.07.17 260 (З) 20000 м    3/3 1000 м 
[Cu med, cong]
+24.7 +11.7 44 +28  1004.1  -0.4  741  272           
12 26.07.17 280 (З) 20000 м    8/5 1000 м кучево-дожд., верхняя 
[Cb cap|Ci sp]
+24.5 +11.8 45 +28  1003.8  -0.3  741  272           
18 26.07.17 060 (СВ) 20000 м    8/3 1000 м кучево-дожд., верхняя 
[Cb cap|Ci sp]
+18.4 +12.9 70 +26  1004.3  0.1  741  277           
21 26.07.17 110 (В) 20000 м    6/0 верхняя 
[Ci sp]
+16.5 +13.1 80 +24  1003.9  -0.5  741  279           
00 27.07.17 180 (Ю) 20000 м    8/6 600 м кучево-дожд., верхняя 
[Cb cap|Ci sp]
+17.1 +13.3 78 +25  1003.5  -0.3  740  278           
03 27.07.17 тихо ()   20000 м    8/0 средняя, верхняя 
[Ac trans|Ci fib]
+20.4 +15.2 72 +30  1003.2  0.1  740  274  +15.4        сухая 
06 27.07.17 280 (З) 20000 м    6/6 1000 м 
[Cu med, cong]
+24.8 +12.2 45 +29  1003  0.1  740  271           
09 27.07.17 320 (СЗ) 20000 м  гроза без осадков{ливн. осадки}  9/9 600 м кучево-дожд. 
[Cb cap]
+23.4 +13.6 54 +30  1002.9  -0.1  740  272           
12 27.07.17 240 (ЮЗ) 4{10}  20000 м  гроза без осадков{ливн. осадки}  8/8 600 м кучево-дожд. 
[Cb cap]
+19.4 +12.3 63 +25  1004.9  1.7  742  277           
18 27.07.17 330 (СЗ) 20000 м  {гроза}  10/10 1000 м кучево-дожд. 
[Cb cap]
+15.9 +14.3 90 +25  1005.3  0.7  742  279           
21 27.07.17 320 (СЗ) н/о    н/о 
+14.1 +12.9 92 +20  1005.8  0.4  742  282           
00 28.07.17 270 (З) 20000 м    ясно 
+12.7 +11.5 92 +17  1006.7  0.8  743  284           
03 28.07.17 300 (СЗ) 20000 м    3/0 верхняя 
[Ci fib]
+18.8 +15 79 +28  1006.9  0.6  743  277  +12.3        сухая 
06 28.07.17 320 (СЗ) 20000 м    5/3 1000 м верхняя 
[Cu hum|Ci sp]
+24.1 +13.9 53 +31  1007.3  0.7  744  273           
09 28.07.17 300 (СЗ) 5{10}  20000 м    8/6 1000 м верхняя 
[Cu med, cong|Ci sp]
+25.1 +12.1 44 +29  1007.2  0.1  743  272           
12 28.07.17 310 (СЗ) 6{10}  20000 м    8/4 600 м верхняя 
[Cu med, cong|Ci sp]
+25.7 +12.2 43 +30  1007.2  0.1  744  272           
18 28.07.17 270 (З) 20000 м    ясно 
+16.5 +13.6 83 +24  1009.3  0.7  745  280           
21 28.07.17 250 (З) 20000 м    ясно 
+16.4 +14.2 87 +24  1009.6  0.2  745  280           
00 29.07.17 230 (ЮЗ) 20000 м    3/0 верхняя 
[Ci fib]
+15 +13.4 90 +22  1010  0.3  745  282           
06 29.07.17 250 (З) 6-10{10}  20000 м    3/3 1000 м 
[Cu med, cong]
+26.3 +15.9 53 +37  1008.4  -0.9  744  270           
Время (UTC), дата Ветер
(°,м/с) 
Видим.   Явления Облачность Т
(°С)
Тd
(°С)
f(%) Тe
(°С)
Pmin
(гПа)
dP
(гПа)
Po
(мм)
O2
(г/м3)
Тmin Tmax R s Состояние
почвы

Для получения пояснительной информации подведите курсор к названию столбца.

ПОГОДА Макушино - архив

Всё, что Вы хотите узнать о погоде Макушино - удобно и подробно!

Выберите нужную дату (начиная с 1 января 2015* года) и нажмите кнопку "Найти".
Будут отображены архивные сводки погоды по пункту Макушино, начиная с указанной даты.


Отображать данные в формате CSV (для использования в таблицах Excel)


Внимание! Наш архив погоды предназначен исключительно для личного некоммерческого использования в познавательных целях. Если Вам необходимы официальные справки о состоянии погоды (для производственных, юридических, коммерческих и т.п. целей), обращайтесь в органы Росгидромета.

*Примечание: данная дата относится к архиву по метеостанциям СССР (Россия, СНГ, Балтия).
Архив по метеостанциям Зарубежной Европы и Азии (кроме Китая) хранится 10 дней, по другим регионам земного шара (Китай, Африка, Америка, Австралия, Океания) - 1 день.

Макушино - район местоположения метеостанции


Название, широта, долгота, высота метеостанции:
Макушино 55.2°ш. 67.3°д. 140 м над ур. моря [Российская Федерация]

Дополнительная информация

В oтличие oт бoльшинства пoгoдных сайтoв мы публикуем пoдрoбную метеoинфoрмацию в детальнoм прoфессиoнальнoм фoрмате.

Характеристики температуры и влажнoсти вoздуха измеряются на высoте 2 м в тени вдали oт зданий и деревьев.
Скoрoсть ветра измеряется на высoте 10 м (на урoвне рoста челoвека скoрoсть ветра ниже в 1.5-2 раза). Если метеoстанция нахoдится в гoрoде или в лесу, тo скoрoсть ветра занижена на 2-4 м/с пo сравнению с oткрытым местoм. Скoрoсть ветра над акватoриями крупных рек и oзёр, а также на вершинах хoлмoв на 2-5 м/с выше, чем в oбычных услoвиях.
Атмoсфернoе давление в разных тoчках местнoсти мoжет значительнo oтличаться oт давления на метеoстанции, в зависимoсти oт услoвий рельефа (при пoдъёме на 10 м давление пoнижается примернo на 1 мм рт.ст.).